This is the latest recevied weather packets stored in our database for station/object KE8ZLU. If no packets are shown the sender has not sent any weather packets the latest 10 day(s).
| Time | Temp. | Humidity | Pressure | Rain* | Wind** | Luminosity | Snow |
|---|---|---|---|---|---|---|---|
| 1777380393 | 15° C | 87% | 1009 hPa | 0 mm | - | 57 W/m² | - |
| 1777380090 | 15.56° C | 86% | 1008.7 hPa | 0 mm | - | 148 W/m² | - |
| 1777379786 | 15.56° C | 88% | 1008.8 hPa | 0 mm | - | 104 W/m² | - |
| 1777379481 | 15.56° C | 89% | 1008.3 hPa | 0 mm | - | 125 W/m² | - |
| 1777379176 | 15.56° C | 88% | 1008.5 hPa | 0 mm | - | 82 W/m² | - |
| 1777378872 | 15° C | 90% | 1008.4 hPa | 0 mm | - | 127 W/m² | - |
| 1777378568 | 15° C | 90% | 1008.2 hPa | 0 mm | - | 55 W/m² | - |
| 1777378264 | 15° C | 91% | 1008.2 hPa | 0 mm | - | 72 W/m² | - |
| 1777377963 | 15° C | 91% | 1008.1 hPa | 0 mm | - | 56 W/m² | - |
| 1777377662 | 15° C | 95% | 1008.1 hPa | 0 mm | - | 22 W/m² | - |
| 1777377358 | 15° C | 96% | 1007.9 hPa | 0 mm | - | 11 W/m² | - |
| 1777377055 | 15° C | 97% | 1007.8 hPa | 0 mm | - | 21 W/m² | - |
| 1777376752 | 15° C | 97% | 1007.9 hPa | 0 mm | - | 12 W/m² | - |
| 1777376449 | 15° C | 98% | 1007.8 hPa | 0 mm | - | 16 W/m² | - |
| 1777376144 | 15° C | 99% | 1007.7 hPa | 0 mm | - | 10 W/m² | - |
| 1777375844 | 15° C | 99% | 1007.8 hPa | 0 mm | - | 10 W/m² | - |
| 1777375539 | 15° C | 99% | 1007.4 hPa | 0 mm | - | 10 W/m² | - |
| 1777375236 | 15° C | 99% | 1007.7 hPa | 0 mm | - | 10 W/m² | - |
| 1777374931 | 15° C | 99% | 1007.5 hPa | 0 mm | - | 10 W/m² | - |
| 1777374627 | 15° C | 99% | 1007.3 hPa | 1.27 mm | - | 9 W/m² | - |
| 1777374324 | 15° C | 99% | 1007.5 hPa | 1.78 mm | - | 5 W/m² | - |
| 1777374020 | 15° C | 99% | 1007.3 hPa | 1.78 mm | - | 2 W/m² | - |
| 1777373717 | 15° C | 98% | 1007.1 hPa | 0 mm | - | 2 W/m² | - |
| 1777373414 | 15° C | 98% | 1006.9 hPa | 0 mm | - | 1 W/m² | - |
| 1777373110 | 15° C | 97% | 1006.7 hPa | 0 mm | - | 1 W/m² | - |
* Rain latest hour (hover to see other rain measurements)
** Current wind speed in m/s (hover to see current wind gust speed)